This is the latest recevied weather packets stored in our database for station/object KF4PPJ. If no packets are shown the sender has not sent any weather packets the latest 10 day(s).
| Time | Temp. | Humidity | Pressure | Rain* | Wind** | Luminosity | Snow |
|---|---|---|---|---|---|---|---|
| 1777668869 | 21.67° C | 47% | 1018.2 hPa | 0 mm | - | 541 W/m² | - |
| 1777668566 | 21.11° C | 49% | 1018.1 hPa | 0 mm | - | 553 W/m² | - |
| 1777668262 | 21.11° C | 49% | 1018.3 hPa | 0 mm | - | 585 W/m² | - |
| 1777667958 | 21.11° C | 48% | 1018.4 hPa | 0 mm | - | 622 W/m² | - |
| 1777667655 | 21.11° C | 50% | 1018.4 hPa | 0 mm | - | 505 W/m² | - |
| 1777667353 | 21.11° C | 50% | 1018.4 hPa | 0 mm | - | 699 W/m² | - |
| 1777667050 | 21.11° C | 52% | 1018.3 hPa | 0 mm | - | 604 W/m² | - |
| 1777666746 | 21.11° C | 51% | 1018.5 hPa | 0 mm | - | 546 W/m² | - |
| 1777666443 | 20.56° C | 51% | 1018.3 hPa | 0 mm | - | 641 W/m² | - |
| 1777666140 | 21.11° C | 52% | 1018.3 hPa | 0 mm | - | 717 W/m² | - |
| 1777665837 | 20.56° C | 52% | 1018.6 hPa | 0 mm | - | 730 W/m² | - |
| 1777665535 | 20.56° C | 51% | 1018.3 hPa | 0 mm | - | 468 W/m² | - |
| 1777665230 | 20.56° C | 52% | 1018.6 hPa | 0 mm | - | 484 W/m² | - |
| 1777664927 | 20.56° C | 52% | 1018.6 hPa | 0 mm | - | 704 W/m² | - |
| 1777664623 | 20.56° C | 52% | 1018.6 hPa | 0 mm | - | 662 W/m² | - |
| 1777664319 | 20° C | 55% | 1018.6 hPa | 0 mm | - | 659 W/m² | - |
| 1777664018 | 20° C | 53% | 1018.5 hPa | 0 mm | - | 619 W/m² | - |
| 1777663715 | 20° C | 54% | 1018.8 hPa | 0 mm | - | 626 W/m² | - |
| 1777663412 | 19.44° C | 57% | 1018.6 hPa | 0 mm | - | 628 W/m² | - |
| 1777663109 | 19.44° C | 56% | 1018.8 hPa | 0 mm | - | 514 W/m² | - |
| 1777662806 | 19.44° C | 57% | 1018.7 hPa | 0 mm | - | 652 W/m² | - |
| 1777662502 | 19.44° C | 56% | 1019 hPa | 0 mm | - | 632 W/m² | - |
| 1777662199 | 18.89° C | 58% | 1018.8 hPa | 0 mm | - | 563 W/m² | - |
| 1777661894 | 18.89° C | 59% | 1019 hPa | 0 mm | - | 488 W/m² | - |
| 1777661590 | 18.89° C | 60% | 1018.9 hPa | 0 mm | - | 433 W/m² | - |
* Rain latest hour (hover to see other rain measurements)
** Current wind speed in m/s (hover to see current wind gust speed)